{"data":{"norad_id":61755,"epoch":"2026-09-22T22:06:38.858976Z","epoch_age_seconds":90801,"freshness":"FRESH","line1":"1 61755U 24199W   26265.92128309  .00566634  15022-3  94696-3 0  9994","line2":"2 61755  97.2689 150.7956 0005063 169.0652 191.0739 16.02908713153234","mean_motion":16.02908713,"eccentricity":0.0005063,"inclination_deg":97.2689,"raan_deg":150.7956,"arg_perigee_deg":169.0652,"mean_anomaly_deg":191.0739,"bstar":0.00094696,"rev_number":15323,"period_min":89.836681797362,"perigee_km":263.00412682348,"apogee_km":269.73235282933,"semimajor_km":6644.5052398264,"source":"CELESTRAK","updated_at":"2026-09-23T09:00:21.028165Z"}}